Preview of NWS' New Version of Forecast
This preview is not operational and should not be used for support decisions.

Regional Weather Roundup (RWR)

Issued by National Weather Service (NWS)

                            
000
ASUS45 KCYS 211010
RWRWY 

WYOMING REGIONAL WEATHER ROUNDUP
NATIONAL WEATHER SERVICE CHEYENNE WY
400 AM MDT SUN APR 21 2019

NOTE:  "FAIR" INDICATES FEW OR NO CLOUDS BELOW 12,000 FEET
WITH NO SIGNIFICANT WEATHER AND/OR OBSTRUCTIONS TO VISIBILITY.

WYZ001-211100-
YELLOWSTONE NATIONAL PARK
  
CITY           SKY/WX    TMP DP  RH WIND       PRES   REMARKS
LK YELLOWSTONE   N/A     33  32  96 CALM      29.93R                  
W YELLOWSTONE  NOT AVBL                                               

$$
WYZ002>013-054>058-071-098>099-211100-
NORTHERN WYOMING
  
CITY           SKY/WX    TMP DP  RH WIND       PRES   REMARKS
JACKSON        CLOUDY    37  34  89 N14       29.87F WCI  28          
CODY           CLOUDY    44  41  89 N10       29.90R                  
GREYBULL       LGT RAIN  48  45  89 NW12      29.80R                  
WORLAND        CLOUDY    49  44  83 NW9       29.83R                  
SHERIDAN       CLOUDY    47  44  90 NW15      29.87R                  
BUFFALO        CLOUDY    45  43  93 N23G33    29.82S FOG              
GILLETTE       CLOUDY    49  47  93 N6        29.79R                  
HULETT         FAIR      50  45  81 E9        29.79                   
NEWCASTLE      FAIR      46  37  71 N5        29.77                   

$$
WYZ014>020-022>026-101>103-211100-
CENTRAL WYOMING
  
CITY           SKY/WX    TMP DP  RH WIND       PRES   REMARKS
BIG PINEY      LGT RAIN  40  35  83 E6        29.89R                  
PINEDALE       CLOUDY    36  34  93 NW5       29.87  WCI  32          
DUBOIS         FAIR      37  30  75 NW10      29.84  WCI  30          
LANDER         FAIR      48  32  53 SW9       29.79R                  
RIVERTON       FAIR      50  37  61 NE16      29.80R                  
CASPER         FAIR      42  40  92 W7        29.79R                  
DOUGLAS        MOCLDY    48  39  71 NW6       29.76R                  

$$
WYZ021-027>030-104>119-211100-
SOUTHERN WYOMING
  
CITY           SKY/WX    TMP DP  RH WIND       PRES   REMARKS
EVANSTON       CLOUDY    40  34  79 W8        29.88S WCI  34          
KEMMERER       DRIZZLE   41  36  81 NW6       29.89                   
ROCK SPRINGS   CLOUDY    43  33  68 W6        29.86F                  
DIXON          CLOUDY    41  29  62 SE5       29.89S                  
RAWLINS        MOCLDY    48  29  47 W9        29.84F                  
SARATOGA       CLOUDY    43  28  56 S6        29.87S                  
LARAMIE        CLOUDY    47  31  53 S8        29.86F                  
CHEYENNE       CLOUDY    54  34  46 NW10      29.83R                  
TORRINGTON     FAIR      51  45  79 NE7       29.74S                  
PINE BLUFFS    FAIR      54  32  43 NW15      29.76S                  

$$